Погода Остров Диксон

Погода Остров Диксон : погода сейчас, прогноз погоды и архив. Всё, что Вы хотите узнать о погоде Остров Диксон!

Хотите узнать прогноз погоды Остров Диксон? Тогда Вам сюда: Погода Остров Диксон

Поиск расширенной информации на нашем сайте:

Другие новости

Новости СМИ2

Главная страница сайта

Новости сайта

03.07.2017

Напоминаем, что на нашем специализированном сайте Метеоцентр.Азия вы можете получить высокодетализированные автоматические прогнозы погоды по пунктам России, СНГ и мира в авиационном формате (включающие направление и скорость ветра, видимость, явления погоды, количество и форму облачности, нижнюю и верхнюю границу облачности).


Погода Остров Диксон - сегодня

Время (UTC), дата Ветер
(°,м/с) 
Видим.   Явления Облачность Т
(°С)
Тd
(°С)
f(%) Тe
(°С)
Pmin
(гПа)
dP
(гПа)
Po
(мм)
O2
(г/м3)
Тmin Tmax R s Состояние
почвы
21 24.07.17 330 (СЗ) 8-11{11}  20000 м    9/9 360 м 
[Sc]
+4.6 +2.8 88 +1  1015.1  0.6  757  300           
00 25.07.17 350 (С) 6{11}  20000 м    9/9 360 м 
[Sc]
+4.8 +2.4 84 +2  1015.6  0.5  757  300  +4.6         
03 25.07.17 350 (С) 7{11}  20000 м    9/9 420 м 
[Sc]
+5.3 +2.3 81 +3  1016.1  0.5  758  299           
06 25.07.17 350 (С) 20000 м    9/9 400 м 
[Sc]
+6.3 +3.5 82 +4  1016.4  0.3  758  298           
09 25.07.17 340 (С) 20000 м    9/9 360 м 
[Sc]
+6.8 +3.5 79 +5  1016.3  758  297           
12 25.07.17 320 (СЗ) 20000 м    8/8 400 м 
[Sc]
+7.4 +3.6 77 +7  1016.5  0.2  758  297    +7.7       
15 25.07.17 310 (СЗ) 20000 м    9/8 600 м верхняя 
[Cu Sc|Ci sp]
+7.9 +3.8 75 +7  1015.6  -0.9  757  296           
18 25.07.17 250 (З) 20000 м    9/6 420 м верхняя 
[Sc|Ci sp]
+7.9 +2.5 69 +7  1015.2  -0.4  757  296           
21 25.07.17 270 (З) 20000 м    9/9 1200 м кучево-дожд. 
[Cb cap]
+7.8 +4.3 79 +7  1014.9  -0.3  757  296           
00 26.07.17 330 (СЗ) 6{10}  4000 м  слаб. ливневой дождь  9/9 210 м кучево-дожд. 
[Cb cap]
+7.3 +6.3 93 +5  1014.5  -0.4  757  296  +7.1    0.4     
03 26.07.17 360 (С) 2000 м  слаб. ливневой дождь  9/9 120 м кучево-дожд. 
[Cb cap]
+7 +6.2 95 +6  1014.4  -0.1  757  296  +6.9         
06 26.07.17 330 (СЗ) 2000 м  слаб. ливневой дождь  9/9 120 м кучево-дожд. 
[Cb cap]
+7.1 +6.3 95 +6  1014.7  0.3  757  296           
09 26.07.17 350 (С) 20000 м  {ливн. осадки}  10/10 720 м 
[Sc]
+7.9 +5.3 84 +8  1015.1  -0.2  757  295           
12 26.07.17 290 (З) 4000 м  дымка{ливн. осадки}  9/9 720 м 
[Sc]
+8.2 +5.9 85 +9  1014.6  0.1  757  295    +8.3  0.4     
15 26.07.17 300 (СЗ) 20000 м    9/8 500 м средняя 
[Sc|Ac und]
+8.3 +5.6 83 +8  1014.3  -0.3  756  295           
18 26.07.17 070 (В) 20000 м    8/6 600 м средняя 
[Sc|Ac trans]
+6.7 +4.9 88 +7  1015.3  0.4  757  297           
21 26.07.17 110 (В) 20000 м    9/6 450 м средняя 
[Sc|Ac und]
+6.3 +5.1 92 +7  1015.1  0.3  757  297           
00 27.07.17 140 (ЮВ) 20000 м    9/8 330 м средняя 
[Sc|Ac und]
+7.1 +4.9 86 +7  1015.4  0.4  757  297  +5.8         
03 27.07.17 130 (ЮВ) 20000 м  в посл. час ливневой дождь  9/8 750 м кучево-дожд., средняя 
[Cb cap|Ac As]
+7 +5.4 90 +7  1015.5  0.1  757  297           
06 27.07.17 200 (Ю) 20000 м  {ливн. осадки}  9/9 180 м 
[St]
+8.4 +7.4 93 +8  1015.8  0.3  758  295           
09 27.07.17 260 (З) 4000 м  слаб. ливневой дождь  9/9 210 м кучево-дожд. 
[Cb cap]
+8.7 +7.7 93 +8  1016.5  0.7  758  295           
12 27.07.17 330 (СЗ) 20000 м  {ливн. осадки}  9/9 750 м 
[Sc]
+9.5 +7.1 85 +10  1016.8  0.3  758  294    +9.6  0.4     
15 27.07.17 070 (В) 20000 м    9/8 480 м средняя 
[Sc|Ac trans]
+8.7 +6.8 88 +9  1016.7  -0.1  758  295           
18 27.07.17 140 (ЮВ) 20000 м    9/5 420 м средняя 
[Sc|Ac trans]
+8.3 +6.7 90 +8  1016.7  758  295           
21 27.07.17 140 (ЮВ) 20000 м    9/8 500 м средняя 
[Sc|Ac trans]
+7.8 +6.2 90 +8  1016.5  -0.2  758  296           
Время (UTC), дата Ветер
(°,м/с) 
Видим.   Явления Облачность Т
(°С)
Тd
(°С)
f(%) Тe
(°С)
Pmin
(гПа)
dP
(гПа)
Po
(мм)
O2
(г/м3)
Тmin Tmax R s Состояние
почвы

Для получения пояснительной информации подведите курсор к названию столбца.

ПОГОДА Остров Диксон - архив

Всё, что Вы хотите узнать о погоде Остров Диксон - удобно и подробно!

Выберите нужную дату (начиная с 1 января 2015* года) и нажмите кнопку "Найти".
Будут отображены архивные сводки погоды по пункту Остров Диксон, начиная с указанной даты.


Отображать данные в формате CSV (для использования в таблицах Excel)


Внимание! Наш архив погоды предназначен исключительно для личного некоммерческого использования в познавательных целях. Если Вам необходимы официальные справки о состоянии погоды (для производственных, юридических, коммерческих и т.п. целей), обращайтесь в органы Росгидромета.

*Примечание: данная дата относится к архиву по метеостанциям СССР (Россия, СНГ, Балтия).
Архив по метеостанциям Зарубежной Европы и Азии (кроме Китая) хранится 10 дней, по другим регионам земного шара (Китай, Африка, Америка, Австралия, Океания) - 1 день.

Остров Диксон - район местоположения метеостанции


Название, широта, долгота, высота метеостанции:
Остров Диксон 73.5°ш. 80.4°д. 47 м над ур. моря [Российская Федерация]

Дополнительная информация

В oтличие oт бoльшинства пoгoдных сайтoв мы публикуем пoдрoбную метеoинфoрмацию в детальнoм прoфессиoнальнoм фoрмате.

Характеристики температуры и влажнoсти вoздуха измеряются на высoте 2 м в тени вдали oт зданий и деревьев.
Скoрoсть ветра измеряется на высoте 10 м (на урoвне рoста челoвека скoрoсть ветра ниже в 1.5-2 раза). Если метеoстанция нахoдится в гoрoде или в лесу, тo скoрoсть ветра занижена на 2-4 м/с пo сравнению с oткрытым местoм. Скoрoсть ветра над акватoриями крупных рек и oзёр, а также на вершинах хoлмoв на 2-5 м/с выше, чем в oбычных услoвиях.
Атмoсфернoе давление в разных тoчках местнoсти мoжет значительнo oтличаться oт давления на метеoстанции, в зависимoсти oт услoвий рельефа (при пoдъёме на 10 м давление пoнижается примернo на 1 мм рт.ст.).